BEIDOU-3 M19

Last updated on Jan. 15, 2021, 6:37 a.m. UTC

1 44864U 19090A   21014.70813189 -.00000019  00000-0  00000-0 0  9991
2 44864  55.1538 129.0448 0014593 260.3319  87.8273  1.86231758  7361
UTC
Height (km)
Latitude
Longitude
Inclination
Orbital Period
UTC large
Height (km)
Speed (km/s)
/
Latitude / Longitude
Inclination (degrees)
Orbital Period (minutes)
Azimuth
Elevation
Range (km)
Doppler Factor
iOS Compass Heading
iOS Angle

Next 30 passes for location: Hong Kong

Rise time Rise Azimuth (degrees) Set time Set Azimuth (degrees) Duration Max altitude (degrees)

No matching passes for this satellites